Content
SEND FEEDBACK

Daily
Averages
Monthly
Summary
United States of America

UMATAC, GUAM


Home > North America > United States > Guam
Elevation: 58 meters     Latitude: 13 17N     Longitude: 144 40E

WEATHER
 
SELECT A DAY
Number of Records: 341,794;   Date Range: 1/1/95 - 7/23/14
 
SHARE

PRINT THIS DATA

[ ← Previous Day ]
WEATHER ALMANAC - 9 JUNE, 2014
[ Next Day → ]
[ °F ]   °C
Weather ElementAverageHighLow
Temperature28.4 °C30.4 °C (1:58 pm)26.7 °C (2:58 am)
Dewpoint24.9 °C26 °C (3:03 pm)24 °C (5:23 am)
Humidity81.2 %89 % (5:13 am)73 % (1:58 pm)
Barometer1008.8 hPa1010.8 hPa (9:43 pm)1006.8 hPa (3:58 pm)
Wind Speed19 km/h29.6 km/h (10:58 am)
Wind Gust37 km/h (10:48 am)
Weather ElementAverage
Visibility15.6 km
Wind DirectionESE (99.9 °)

Weather ElementTotal
Precipitation---
Cooling Degree Days10.2 (Base 18.3)
Growing Degree Days18.6 (Base 10)
Averaged from 76 records on 9 June, 2014
WEATHER CONDITIONS BREAKOUT
WIND DIRECTION BREAKOUT
WEATHER BY HOUR - 9 JUNE, 2014
[ °F ]   °C
Local TimeTemperatureDewpointHumidityBarometerVisibilityWind DirectionWind SpeedGust SpeedPrecipitationEventsConditions
1:58 AM27.1 °C24.6 °C86 %1008.1 hPa16.1 kmENE (60°)13 km/hPartly Cloudy
2:58 AM26.7 °C24.6 °C88 %1007.5 hPa16.1 kmENE (60°)14.8 km/hPartly Cloudy
3:58 AM26.8 °C24.5 °C87 %1007.5 hPa16.1 kmENE (60°)13 km/hPartly Cloudy
4:58 AM26.7 °C24.6 °C88 %1007.5 hPa16.1 kmENE (60°)18.5 km/hScattered Clouds
5:13 AM27 °C25 °C89 %1008.5 hPa16.1 kmENE (60°)20.4 km/hMostly Cloudy
5:23 AM27 °C24 °C84 %1008.5 hPa16.1 kmENE (70°)18.5 km/hScattered Clouds
5:58 AM26.7 °C24.4 °C87 %1007.8 hPa16.1 kmEast (80°)18.5 km/hPartly Cloudy
6:33 AM27 °C24 °C84 %1009.1 hPa16.1 kmEast (100°)18.5 km/hMostly Cloudy
6:38 AM27 °C24 °C84 %1009.1 hPa16.1 kmEast (90°)16.7 km/hMostly Cloudy
6:58 AM27.6 °C24.6 °C84 %1008.5 hPa16.1 kmEast (80°)22.2 km/hMostly Cloudy
7:13 AM28 °C24 °C79 %1009.5 hPa16.1 kmEast (80°)20.4 km/hScattered Clouds
7:33 AM28 °C25 °C84 %1009.8 hPa16.1 kmEast (100°)22.2 km/hMostly Cloudy
7:53 AM29 °C25 °C79 %1009.8 hPa16.1 kmEast (100°)18.5 km/hMostly Cloudy
7:58 AM28.6 °C24.7 °C79 %1008.5 hPa16.1 kmEast (100°)20.4 km/hScattered Clouds
8:58 AM29.2 °C25.2 °C79 %1008.8 hPa16.1 kmEast (100°)22.2 km/hScattered Clouds
9:18 AM29 °C25 °C79 %1009.8 hPa16.1 kmESE (110°)20.4 km/hMostly Cloudy
9:23 AM29 °C25 °C79 %1010.2 hPa16.1 kmESE (110°)24.1 km/h33.3 km/hMostly Cloudy
9:33 AM30 °C25 °C74 %1009.8 hPa16.1 kmEast (100°)24.1 km/hScattered Clouds
9:38 AM29 °C25 °C79 %1009.8 hPa16.1 kmEast (100°)24.1 km/hMostly Cloudy
9:43 AM29 °C25 °C79 %1009.8 hPa16.1 kmEast (100°)24.1 km/hScattered Clouds
9:58 AM29.9 °C25.5 °C77 %1008.8 hPa16.1 kmEast (100°)22.2 km/hScattered Clouds
10:03 AM30 °C25 °C74 %1009.8 hPa16.1 kmEast (100°)25.9 km/h35.2 km/hMostly Cloudy
10:43 AM30 °C25 °C74 %1009.5 hPa16.1 kmEast (100°)24.1 km/hMostly Cloudy
10:48 AM30 °C25 °C74 %1009.5 hPa16.1 kmEast (90°)25.9 km/h37 km/hMostly Cloudy
10:58 AM29.8 °C25.4 °C77 %1008.5 hPa16.1 kmEast (90°)29.6 km/h37 km/hScattered Clouds
11:43 AM30 °C25 °C74 %1009.1 hPa16.1 kmESE (110°)25.9 km/hMostly Cloudy
11:58 AM29.5 °C25.3 °C78 %1007.8 hPa16.1 kmEast (100°)20.4 km/hMostly Cloudy
12:23 PM29 °C25 °C79 %1008.8 hPa16.1 kmESE (110°)20.4 km/hScattered Clouds
12:28 PM29 °C25 °C79 %1008.8 hPa16.1 kmESE (110°)20.4 km/hMostly Cloudy
12:33 PM29 °C25 °C79 %1008.8 hPa16.1 kmEast (100°)22.2 km/hMostly Cloudy
12:43 PM30 °C25 °C74 %1008.8 hPa16.1 kmESE (110°)22.2 km/hMostly Cloudy
12:48 PM30 °C25 °C74 %1008.8 hPa16.1 kmEast (100°)24.1 km/hMostly Cloudy
12:58 PM30.1 °C25 °C74 %1007.8 hPa16.1 kmEast (100°)22.2 km/hMostly Cloudy
1:58 PM30.4 °C25 °C73 %1007.5 hPa16.1 kmESE (110°)18.5 km/hPartly Cloudy
2:28 PM30 °C25 °C74 %1008.5 hPa16.1 kmEast (90°)22.2 km/hMostly Cloudy
2:33 PM30 °C25 °C74 %1008.5 hPa16.1 kmESE (110°)20.4 km/hScattered Clouds
2:54 PM30 °C25 °C74 %1008.1 hPa11.3 kmENE (70°)25.9 km/h37 km/hMostly Cloudy
2:55 PM29 °C25 °C79 %1008.1 hPa9.7 kmENE (70°)24.1 km/h37 km/hRainLight Rain
2:58 PM29.4 °C25.4 °C79 %1007.1 hPa8 kmEast (90°)18.5 km/h37 km/h0 mmRainLight Rain
3:03 PM28 °C26 °C89 %1008.1 hPa8 kmEast (100°)20.4 km/h33.3 km/hRainLight Rain
3:07 PM28 °C25 °C84 %1008.1 hPa16.1 kmEast (90°)18.5 km/hScattered Clouds
3:58 PM29.7 °C25.3 °C77 %1006.8 hPa16.1 kmEast (100°)16.7 km/h0 mmScattered Clouds
4:03 PM29 °C25 °C79 %1007.8 hPa16.1 kmEast (100°)18.5 km/hMostly Cloudy
4:17 PM28 °C25 °C84 %1008.1 hPa8 kmESE (120°)16.7 km/h33.3 km/hRainLight Rain
4:26 PM27 °C25 °C89 %1008.1 hPa16.1 kmESE (120°)16.7 km/hMostly Cloudy
4:36 PM28 °C25 °C84 %1008.1 hPa16.1 kmESE (110°)14.8 km/hMostly Cloudy
4:56 PM29 °C25 °C79 %1008.1 hPa16.1 kmESE (110°)16.7 km/hMostly Cloudy
4:58 PM28.6 °C25.5 °C83 %1007.1 hPa16.1 kmESE (110°)14.8 km/h0 mmMostly Cloudy
5:03 PM28 °C25 °C84 %1008.1 hPa16.1 kmESE (110°)18.5 km/hScattered Clouds
5:18 PM29 °C25 °C79 %1008.1 hPa16.1 kmESE (120°)22.2 km/hMostly Cloudy
5:28 PM29 °C25 °C79 %1008.1 hPa16.1 kmESE (120°)18.5 km/hScattered Clouds
5:33 PM29 °C25 °C79 %1008.5 hPa16.1 kmESE (120°)20.4 km/hMostly Cloudy
5:38 PM29 °C25 °C79 %1008.5 hPa16.1 kmESE (120°)18.5 km/hMostly Cloudy
5:43 PM28 °C25 °C84 %1008.5 hPa16.1 kmESE (110°)20.4 km/hMostly Cloudy
5:53 PM28 °C24 °C79 %1008.5 hPa16.1 kmESE (120°)18.5 km/hScattered Clouds
5:58 PM28.1 °C24.5 °C81 %1007.8 hPa16.1 kmESE (110°)14.8 km/hScattered Clouds
6:03 PM28 °C25 °C84 %1008.8 hPa16.1 kmESE (120°)18.5 km/hMostly Cloudy
6:13 PM28 °C25 °C84 %1008.8 hPa16.1 kmESE (110°)14.8 km/hScattered Clouds
6:38 PM28 °C24 °C79 %1009.1 hPa16.1 kmEast (100°)18.5 km/hMostly Cloudy
6:43 PM28 °C24 °C79 %1009.1 hPa16.1 kmEast (100°)16.7 km/hMostly Cloudy
6:58 PM27.7 °C24.3 °C82 %1008.1 hPa16.1 kmESE (110°)13 km/hMostly Cloudy
7:13 PM28 °C24 °C79 %1009.1 hPa16.1 kmESE (110°)14.8 km/hScattered Clouds
7:48 PM28 °C24 °C79 %1009.8 hPa16.1 kmEast (100°)16.7 km/hMostly Cloudy
7:58 PM27.5 °C24.6 °C84 %1008.8 hPa16.1 kmEast (100°)14.8 km/hMostly Cloudy
8:08 PM28 °C25 °C84 %1010.2 hPa16.1 kmEast (100°)16.7 km/hMostly Cloudy
8:58 PM27.6 °C25 °C86 %1009.5 hPa16.1 kmESE (110°)16.7 km/hMostly Cloudy
9:03 PM28 °C25 °C84 %1010.5 hPa16.1 kmESE (110°)16.7 km/hMostly Cloudy
9:08 PM28 °C25 °C84 %1010.5 hPa16.1 kmESE (110°)16.7 km/hMostly Cloudy
9:13 PM28 °C25 °C84 %1010.5 hPa16.1 kmEast (100°)16.7 km/hScattered Clouds
9:43 PM27 °C25 °C89 %1010.8 hPa16.1 kmESE (110°)13 km/hMostly Cloudy
9:53 PM28 °C25 °C84 %1010.8 hPa16.1 kmESE (110°)13 km/hMostly Cloudy
9:58 PM27.5 °C24.8 °C85 %1009.8 hPa16.1 kmEast (100°)16.7 km/hMostly Cloudy
10:08 PM27 °C25 °C89 %1010.8 hPa16.1 kmESE (110°)16.7 km/hMostly Cloudy
10:13 PM27 °C25 °C89 %1010.8 hPa16.1 kmESE (120°)14.8 km/hMostly Cloudy
10:58 PM27 °C25 °C89 %1009.8 hPa16.1 kmESE (110°)13 km/hScattered Clouds
11:58 PM27.1 °C25.1 °C89 %1009.5 hPa16.1 kmEast (80°)13 km/hScattered Clouds
Hourly data recorded from PGUA, located 0 kilometers away from Umatac, Guam







STORIES FROM OUR PARTNERS